Tracking 17260 objects as of 27-August-2015
HD Live streaming from Space Station

BKA 2

Track BKA 2 now!
10-day predictions
BKA 2 is classified as:


NORAD ID: 38708
Int'l Code: 2012-039B
Perigee: 512.1 km
Apogee: 514.6 km
Inclination: 97.4 °
Period: 94.7 minutes
Semi major axis: 6884 km
RCS: 1.9657 m2 (large)
Launch date: July 22, 2012
Source: (BELA)

The BKA satellite is a Belarusian satellite analogue of the Canopus-B, a satellite designed for remote sensing of the Earth. It weighs about 400 kilograms and it is to work on a circular orbit at a height of 510 km.
Your satellite tracking list
Your tracking list is empty





NASA's NSSDC Master Catalog

Two Line Element Set (TLE):
1 38708U 12039B   15238.89948082 +.00000967 +00000-0 +48208-4 0  9996
2 38708 097.4251 151.5306 0001770 079.6071 341.4977 15.19879658171702

Source of the keplerian elements: AFSPC

N2YO: 283